Temperature
11 11 11 11 11 11 11 11 11 11 11 11 11 11 11 11 11 11 11 11 11 11 11 11 10 10 10 10 10 10 10 10 10 10 10 10 10 10 10 10 10 10 10
10 10 10 10 10 10 10 10 10 10 10 10 10 10 10 10 10 10 10 10 10 10 10 10 10 10 10 10 10 10 10 10 10 10 10 10 10 10 10 10 10 10 10
10 10 10 10 10 10 10 10 10 10 10 10 10 10 10 10 10 10 10 10 10 10 10 10 9 9 9 9 9 9 9 9 9 9 9 9 9 9 9 9 9 9 9
10 9 9 9 9 9 9 9 9 9 9 9 9 9 9 9 9 9 9 9 9 9 9 9 9 9 9 9 8 8 8 8 8 8 8 8 8 8 9 9 9 9 9
9 9 9 9 9 9 8 8 8 9 9 9 9 9 9 9 9 9 9 9 9 9 8 8 8 8 8 8 8 8 8 8 8 8 8 8 8 8 8 8 8 8 9
8 8 8 8 8 8 8 8 8 8 8 8 8 8 8 8 8 8 8 8 8 8 8 8 8 8 8 8 8 7 7 7 7 7 7 7 7 7 7 8 8 8 8
8 8 8 8 8 8 7 7 7 7 7 7 7 7 8 8 7 7 7 7 7 7 7 7 7 7 7 7 7 7 7 7 7 6 6 7 7 7 7 7 7 7 7
7 7 7 7 7 7 7 7 7 6 6 6 6 6 6 6 7 7 7 7 7 7 7 7 7 7 7 7 7 6 6 6 6 6 6 6 6 6 6 6 6 6 6
7 7 7 6 6 6 6 6 6 6 6 6 5 5 5 5 5 6 6 6 6 6 6 6 6 6 6 6 6 6 6 6 5 5 5 6 6 6 6 6 6 6 6
6 6 6 6 6 6 6 5 5 5 5 5 5 5 5 5 4 5 5 5 5 5 5 5 5 5 5 5 5 5 5 5 5 5 5 5 5 5 5 5 5 5 5
6 5 5 5 5 5 5 5 5 5 4 4 4 4 4 4 4 4 4 4 4 5 4 4 4 4 4 4 4 4 4 4 4 4 4 4 4 4 5 5 5 5 5
5 5 5 5 5 5 4 4 4 4 4 4 4 4 4 3 4 3 3 3 4 4 4 4 4 4 4 4 4 4 4 4 4 4 4 4 4 4 4 4 4 4 4
5 5 4 4 4 4 4 4 4 4 3 3 3 3 3 3 3 3 3 3 3 3 3 3 3 3 3 3 3 3 3 3 3 3 3 3 3 3 3 3 3 3 3
4 4 4 4 4 4 3 3 3 3 3 3 3 3 3 3 3 2 2 2 2 2 2 3 3 3 3 2 2 2 2 2 2 2 2 3 3 3 3 3 3 3 3
3 3 3 3 3 3 3 2 2 2 2 2 2 2 2 2 2 2 2 2 2 1 1 2 2 2 2 2 2 2 2 2 2 2 2 2 2 2 2 2 2 2 2
3 3 3 3 2 2 2 2 2 2 2 2 2 2 2 2 2 2 2 1 1 1 1 1 1 1 1 1 1 1 1 1 1 1 1 1 1 2 1 2 2 2 2
2 2 2 2 2 2 1 1 1 1 1 1 1 1 1 1 1 1 1 1 1 1 1 1 1 1 1 0 1 1 1 1 1 1 1 1 1 1 1 1 1 1 1
2 2 2 2 1 1 1 1 1 1 1 1 1 1 1 1 1 1 1 1 0 0 0 0 0 0 0 -0 -0 0 0 0 0 0 1 1 1 1 1 1 1 1 1
1 1 1 1 1 0 0 0 0 0 0 0 1 0 0 0 0 0 0 0 0 -0 -0 -0 -0 -0 -0 -0 -0 -0 -0 -0 0 0 0 0 0 0 0 0 0 0 0
1 1 0 0 0 -0 -0 -0 -0 -0 -0 0 0 0 -0 -0 -0 -0 -0 -0 -0 -1 -1 -1 -1 -1 -1 -1 -1 -1 -1 -1 -0 -0 -0 -0 -0 -0 -0 -0 -0 0 0
0 -0 -0 -0 -0 -0 -1 -1 -1 -0 -0 -0 -0 -0 -0 -0 -0 -1 -1 -1 -1 -1 -1 -1 -1 -1 -1 -1 -1 -1 -2 -1 -1 -1 -1 -1 -1 -0 -0 -0 -0 -0 -0
-1 -1 -1 -1 -1 -1 -1 -1 -1 -1 -1 -1 -1 -1 -1 -1 -1 -1 -1 -1 -1 -1 -1 -1 -1 -1 -1 -1 -2 -2 -2 -2 -2 -1 -1 -1 -1 -1 -1 -1 -1 -1 -1
-1 -1 -1 -1 -1 -1 -1 -1 -1 -1 -1 -1 -1 -1 -1 -1 -1 -1 -1 -1 -1 -1 -1 -1 -1 -1 -1 -2 -2 -2 -2 -2 -2 -2 -2 -2 -1 -1 -1 -1 -1 -1 -1
-2 -1 -1 -1 -2 -2 -2 -2 -2 -2 -2 -2 -1 -1 -1 -1 -2 -2 -2 -2 -2 -1 -1 -2 -2 -2 -2 -2 -2 -2 -2 -2 -2 -2 -2 -2 -2 -2 -1 -1 -1 -1 -1
-2 -2 -2 -2 -2 -2 -2 -2 -2 -2 -2 -2 -2 -2 -2 -2 -2 -2 -2 -2 -2 -2 -2 -2 -2 -2 -2 -2 -2 -2 -2 -2 -2 -2 -2 -3 -2 -2 -2 -1 -2 -2 -2
-2 -2 -2 -2 -2 -2 -2 -2 -3 -3 -3 -3 -2 -2 -2 -2 -2 -2 -2 -2 -2 -2 -2 -2 -2 -2 -2 -2 -3 -3 -3 -3 -3 -3 -3 -3 -3 -3 -3 -2 -2 -2 -2
Wind_Speed
2 2 2 2 2 2 1 1 1 1 1 1 1 1 1 1 1 2 3 4 5 5 5 5 5 4 5 4 4 5 5 6 6 7 7 8 8 8 8 8 9 9 10
3 3 2 2 1 1 2 1 1 1 0 0 1 1 1 2 2 3 3 4 5 5 6 6 6 5 5 5 5 6 6 6 7 7 7 8 8 9 9 9 9 10 10
3 3 2 2 1 1 2 2 1 1 0 1 1 2 1 2 3 3 3 4 4 5 5 6 6 6 6 5 6 6 6 7 7 7 8 8 9 9 10 10 10 10 11
3 3 2 1 1 2 2 1 0 0 1 1 2 2 2 2 3 3 3 3 3 3 4 5 6 6 6 7 7 7 7 7 8 8 9 9 9 10 11 11 11 11 12
3 3 2 1 2 2 1 0 0 0 1 2 2 2 2 2 2 3 2 2 2 3 3 4 5 7 7 8 8 8 8 8 9 9 10 10 10 10 11 12 13 13 13
3 3 2 1 2 1 1 1 0 0 1 1 2 3 3 3 2 2 2 2 2 2 3 4 4 5 7 8 9 9 10 10 10 10 10 11 11 12 12 12 13 13 13
2 2 1 1 1 2 2 2 1 0 1 1 1 2 3 3 2 2 1 1 2 2 3 4 4 4 5 7 8 9 10 10 10 11 11 11 12 13 13 13 13 13 14
2 1 2 1 1 1 1 2 1 1 0 0 1 1 2 3 3 2 2 2 2 2 2 4 4 4 5 6 7 9 10 11 12 12 12 12 13 13 13 13 14 14 14
2 1 2 1 1 2 2 2 2 3 2 1 0 1 1 2 3 2 2 1 2 2 3 4 4 5 6 5 6 7 9 11 12 13 13 13 13 13 13 14 14 14 14
1 1 2 1 1 1 2 2 2 2 2 2 1 1 2 2 1 3 3 2 3 3 3 4 4 5 5 5 6 7 9 10 12 13 13 13 13 13 13 14 14 14 15
1 1 1 1 2 2 2 2 2 2 3 3 2 1 1 1 2 2 4 3 3 3 3 3 3 4 5 4 5 7 8 10 11 12 13 13 13 13 13 14 14 14 14
1 1 1 2 2 2 2 3 3 4 4 3 3 2 2 2 2 2 3 4 4 4 3 3 3 3 4 4 5 8 9 10 11 11 12 12 13 13 13 14 14 14 14
2 3 2 2 2 2 2 2 3 4 4 4 4 4 3 3 2 2 3 3 4 4 3 2 3 3 4 4 6 7 8 10 10 10 11 11 12 13 13 13 14 14 14
3 3 2 2 2 2 2 2 3 4 4 4 4 4 3 4 3 3 3 2 3 3 3 4 2 3 3 4 5 7 7 9 9 10 11 11 12 12 12 13 13 13 14
2 2 2 2 2 2 3 3 3 4 3 4 4 4 3 3 3 3 3 3 3 4 5 3 2 2 4 5 7 6 6 8 9 10 11 11 12 12 12 12 13 13 14
2 2 2 3 3 2 2 3 3 3 4 4 3 4 3 3 3 3 3 3 3 4 4 2 3 3 4 5 8 7 7 9 9 10 11 11 12 12 12 13 13 13 14
3 3 3 3 3 3 3 3 4 4 4 4 4 4 4 3 3 3 2 2 3 3 5 4 3 3 3 4 5 6 7 6 7 9 10 11 12 12 12 13 13 13 14
3 3 3 3 3 3 3 4 4 4 4 5 4 4 5 4 3 3 3 3 3 3 4 5 4 3 4 4 3 4 5 6 6 9 10 12 12 12 12 13 13 14 14
3 2 3 3 4 4 4 4 4 4 5 5 5 5 5 4 4 4 4 4 3 3 3 4 4 3 3 3 3 4 5 4 6 8 10 10 11 12 13 13 13 13 13
3 3 3 4 4 4 4 4 4 4 4 5 5 5 5 5 5 5 4 4 4 3 3 4 4 3 3 3 3 3 4 3 5 6 7 8 10 12 12 13 13 13 13
4 4 4 4 4 4 4 5 5 5 4 5 5 5 5 6 7 5 4 4 4 3 3 3 3 3 3 3 3 3 5 4 5 4 3 5 5 5 8 11 12 12 12
3 3 4 4 4 4 6 7 5 4 4 5 5 4 5 5 6 7 7 6 5 4 4 4 3 4 5 4 3 4 4 4 4 2 3 5 4 4 5 6 10 12 11
3 3 4 4 5 6 7 7 7 4 4 5 4 4 3 4 5 4 5 6 6 7 6 4 4 5 5 5 4 5 5 5 6 4 3 5 4 5 5 7 11 11 10
3 3 4 4 4 5 7 7 6 4 3 4 5 4 4 4 4 4 3 3 3 4 5 4 4 5 5 5 5 5 5 5 5 4 3 4 4 4 5 5 9 10 10
3 3 3 4 4 5 6 6 6 3 3 4 4 4 4 4 5 5 3 3 3 3 4 5 6 6 7 7 5 3 3 4 5 4 2 2 3 4 4 4 6 8 10
4 3 3 4 4 4 6 6 5 3 3 3 3 3 5 5 5 5 3 3 3 3 3 2 3 4 4 4 5 3 3 4 4 3 2 2 2 2 3 3 3 5 6
Wind_Direction
126 113 106 106 100 106 108 70 66 75 61 24 5 11 317 275 281 280 276 271 275 282 280 274 271 267 268 269 271 273 276 280 283 286 288 293 296 300 300 303 299 300 297
124 120 112 104 106 128 135 131 122 107 15 354 331 310 270 264 268 272 268 272 273 277 279 276 273 272 270 274 278 278 280 281 283 286 291 292 296 297 297 300 300 297 298
127 123 119 117 102 122 113 94 79 62 360 339 306 301 280 271 265 264 263 263 273 277 276 275 275 275 271 272 276 280 283 286 288 290 291 292 294 296 298 297 297 297 297
124 116 113 126 118 100 88 106 124 95 327 321 307 293 287 277 264 262 262 261 269 271 280 283 282 281 282 280 277 279 281 285 288 290 292 292 292 293 295 294 297 294 296
125 119 113 111 120 91 72 151 92 165 296 310 298 291 288 275 262 266 267 262 262 257 267 284 285 284 281 284 284 282 282 285 287 289 290 290 292 293 293 293 294 293 294
133 124 103 106 111 125 160 176 178 123 251 278 305 308 296 282 269 246 251 260 268 264 271 280 283 287 286 287 290 290 286 284 285 288 290 289 290 291 291 291 293 293 294
128 116 105 110 128 173 198 196 190 175 301 341 350 321 311 297 269 253 255 265 281 283 287 284 279 277 286 289 293 292 292 291 289 289 291 288 288 289 290 292 292 290 291
135 127 118 162 184 179 200 206 185 180 269 123 126 357 319 320 315 305 279 256 274 302 304 301 286 279 282 284 289 292 296 297 295 293 290 290 289 288 291 292 291 290 290
148 143 139 153 195 187 210 218 195 185 199 241 185 165 197 251 307 304 308 297 293 285 294 296 287 285 283 285 288 288 294 298 298 295 294 292 292 291 293 294 293 291 292
165 177 168 169 196 200 214 227 206 201 183 215 262 252 230 203 231 298 308 313 306 293 292 301 295 289 287 286 284 291 298 299 300 301 299 298 298 299 300 300 298 297 297
193 205 200 191 208 213 220 227 218 210 200 204 215 242 262 266 233 242 282 300 308 291 288 290 290 289 291 291 291 294 303 305 306 307 307 305 304 305 306 306 305 302 304
225 232 221 216 222 221 225 234 223 215 214 210 211 214 222 227 236 235 261 284 291 292 293 286 280 283 287 298 300 304 305 305 307 310 312 312 310 310 310 310 309 307 304
237 241 240 235 236 230 230 233 229 228 218 215 216 223 228 235 230 236 249 275 285 292 287 283 273 277 288 301 300 306 307 308 310 310 310 311 311 311 310 310 311 310 308
233 229 228 242 251 242 243 236 240 242 225 221 228 226 231 237 229 233 230 250 288 288 275 266 283 271 291 302 303 315 313 309 310 310 310 312 310 308 308 308 309 309 308
240 226 225 236 244 240 242 240 242 251 237 226 227 227 235 242 240 235 232 224 232 272 277 260 265 272 294 302 304 309 302 302 307 310 310 311 312 308 307 307 308 308 306
239 229 234 235 242 240 237 234 242 250 242 233 223 222 235 243 248 242 235 238 236 244 267 264 262 281 293 296 302 308 303 304 304 307 311 314 313 313 312 310 309 309 308
228 228 232 235 237 240 238 239 243 243 242 238 231 227 238 237 237 243 239 238 242 240 263 281 279 286 278 286 305 308 304 300 298 304 308 313 315 316 314 314 315 312 310
239 234 231 237 240 241 238 237 244 244 240 235 233 233 240 238 236 240 235 235 238 239 248 273 289 289 281 279 287 295 305 303 299 301 308 310 311 313 314 313 313 311 309
248 244 236 239 243 243 241 243 240 238 242 237 229 231 235 229 238 241 239 235 239 249 247 259 280 285 290 297 304 299 296 295 300 302 306 307 309 312 313 314 312 311 310
243 241 239 240 240 244 243 244 242 239 246 243 234 232 232 227 231 233 235 230 234 241 244 251 270 284 288 292 294 293 303 302 303 307 307 307 308 311 313 314 314 313 310
247 239 238 244 242 245 243 242 238 237 241 243 239 235 234 238 243 240 240 226 225 233 243 252 260 280 282 285 282 287 298 304 300 295 301 305 310 311 314 313 315 314 313
255 243 237 239 245 251 260 264 256 235 238 239 237 238 240 241 247 255 259 253 240 232 234 245 261 260 270 273 277 283 296 299 297 293 304 303 306 305 310 312 316 316 315
254 252 244 240 245 252 261 265 266 247 230 236 230 234 245 249 257 247 258 264 263 259 250 240 243 252 258 258 262 276 283 288 280 282 296 291 293 294 303 310 316 320 321
250 252 251 242 245 256 266 265 265 249 232 237 228 223 227 234 243 246 242 251 253 262 260 254 243 250 255 252 246 260 269 283 284 279 258 269 284 286 301 304 312 318 326
253 252 254 248 248 260 269 266 258 231 238 245 237 229 229 230 248 257 250 249 263 272 276 267 266 270 272 274 273 267 273 286 293 287 259 250 274 291 291 291 304 316 323
247 255 263 255 248 251 266 264 252 223 235 240 236 234 243 252 253 256 239 230 251 268 275 293 301 300 296 288 290 270 253 266 281 280 267 264 279 300 301 289 299 318 322
Height
1517 1518 1518 1520 1520 1521 1521 1522 1522 1522 1523 1523 1523 1523 1523 1523 1524 1524 1524 1524 1524 1524 1524 1523 1523 1523 1522 1522 1522 1521 1521 1520 1519 1519 1518 1518 1517 1516 1516 1515 1514 1513 1513
1515 1516 1516 1517 1518 1519 1519 1519 1520 1520 1520 1520 1521 1521 1521 1521 1521 1521 1521 1521 1521 1521 1521 1521 1520 1520 1519 1519 1518 1518 1518 1517 1516 1516 1515 1514 1513 1513 1512 1511 1510 1510 1509
1513 1513 1514 1515 1515 1516 1517 1517 1517 1517 1517 1517 1517 1518 1518 1518 1518 1518 1518 1518 1518 1517 1517 1517 1517 1517 1516 1516 1515 1515 1514 1514 1513 1512 1512 1511 1510 1509 1508 1508 1507 1506 1505
1510 1511 1511 1512 1513 1513 1514 1514 1514 1514 1514 1514 1514 1514 1514 1514 1514 1515 1515 1514 1514 1514 1514 1514 1513 1513 1513 1512 1512 1511 1511 1510 1509 1509 1508 1507 1506 1505 1505 1504 1503 1502 1501
1507 1508 1508 1509 1509 1510 1510 1511 1511 1510 1510 1510 1510 1511 1511 1511 1511 1511 1511 1511 1511 1511 1511 1510 1510 1510 1509 1509 1508 1508 1507 1507 1506 1505 1504 1504 1503 1502 1501 1500 1499 1498 1497
1504 1505 1506 1506 1506 1507 1507 1507 1507 1507 1507 1507 1507 1507 1507 1507 1507 1507 1507 1508 1508 1507 1507 1507 1506 1506 1505 1505 1504 1504 1503 1503 1502 1501 1501 1500 1499 1498 1497 1496 1495 1493 1493
1501 1502 1502 1503 1503 1503 1504 1504 1504 1504 1504 1504 1504 1503 1503 1503 1503 1503 1504 1504 1504 1504 1503 1503 1502 1502 1501 1501 1500 1500 1499 1499 1498 1497 1496 1495 1495 1494 1492 1491 1490 1489 1488
1498 1498 1499 1500 1500 1500 1500 1500 1500 1500 1500 1501 1501 1500 1499 1500 1499 1499 1500 1500 1500 1500 1500 1499 1499 1498 1497 1497 1496 1496 1495 1494 1494 1493 1492 1491 1490 1489 1488 1486 1485 1484 1483
1495 1495 1496 1496 1497 1497 1497 1497 1497 1497 1497 1497 1498 1499 1498 1496 1496 1495 1495 1496 1496 1496 1496 1495 1495 1494 1494 1493 1492 1491 1491 1490 1489 1488 1487 1486 1485 1484 1483 1482 1480 1479 1477
1491 1492 1492 1493 1493 1493 1493 1493 1493 1493 1494 1494 1494 1495 1496 1495 1495 1492 1492 1492 1492 1492 1492 1491 1491 1490 1490 1489 1488 1487 1486 1485 1484 1483 1482 1481 1480 1479 1478 1477 1475 1474 1472
1488 1488 1489 1490 1490 1489 1489 1489 1489 1490 1490 1490 1490 1491 1491 1491 1491 1490 1488 1488 1488 1488 1487 1487 1486 1486 1485 1484 1483 1482 1482 1481 1480 1478 1477 1476 1475 1474 1472 1471 1470 1468 1467
1484 1485 1486 1486 1486 1485 1485 1485 1485 1486 1486 1486 1486 1487 1487 1487 1487 1487 1485 1484 1483 1483 1483 1483 1482 1481 1481 1480 1479 1478 1477 1476 1475 1474 1473 1471 1470 1469 1467 1466 1464 1463 1462
1481 1481 1482 1482 1481 1481 1481 1481 1481 1482 1482 1482 1482 1483 1483 1484 1484 1483 1483 1481 1479 1478 1478 1478 1478 1477 1476 1475 1475 1474 1472 1471 1470 1469 1468 1466 1465 1463 1462 1461 1459 1457 1456
1477 1477 1478 1478 1477 1477 1477 1477 1477 1477 1477 1478 1478 1479 1479 1479 1479 1479 1479 1478 1476 1474 1474 1473 1473 1473 1472 1471 1470 1469 1468 1467 1465 1464 1463 1461 1460 1459 1457 1455 1454 1452 1451
1473 1473 1473 1473 1473 1473 1473 1473 1472 1472 1473 1473 1474 1474 1474 1475 1475 1475 1475 1475 1474 1471 1469 1469 1469 1469 1468 1467 1466 1465 1463 1462 1461 1460 1458 1457 1455 1454 1452 1450 1449 1447 1445
1469 1469 1469 1469 1469 1468 1468 1468 1468 1468 1468 1468 1469 1469 1469 1470 1470 1470 1470 1470 1470 1469 1466 1465 1465 1464 1464 1463 1462 1461 1459 1458 1457 1455 1454 1452 1450 1448 1447 1445 1444 1442 1440
1465 1465 1464 1464 1464 1464 1464 1463 1463 1463 1463 1464 1464 1464 1465 1465 1465 1465 1465 1465 1465 1465 1463 1461 1461 1460 1460 1459 1457 1456 1455 1454 1452 1450 1449 1447 1445 1444 1442 1440 1438 1437 1435
1460 1460 1460 1459 1459 1459 1459 1459 1459 1459 1459 1459 1459 1459 1460 1460 1460 1460 1460 1460 1460 1460 1459 1457 1456 1456 1455 1454 1453 1452 1451 1449 1448 1446 1444 1443 1441 1439 1437 1435 1434 1432 1430
1456 1455 1455 1454 1454 1454 1454 1454 1454 1454 1454 1454 1454 1455 1455 1455 1455 1455 1455 1455 1456 1456 1455 1454 1452 1452 1451 1450 1449 1448 1447 1445 1444 1442 1440 1438 1437 1435 1433 1431 1429 1427 1425
1451 1451 1450 1450 1450 1450 1450 1449 1449 1449 1449 1449 1450 1450 1450 1450 1450 1450 1451 1451 1451 1451 1451 1450 1449 1447 1447 1446 1446 1444 1442 1441 1440 1438 1436 1434 1433 1431 1429 1427 1424 1422 1421
1447 1446 1446 1446 1445 1445 1445 1445 1445 1445 1445 1445 1445 1445 1445 1446 1446 1446 1446 1447 1447 1447 1446 1446 1445 1444 1443 1442 1442 1440 1438 1436 1435 1434 1432 1430 1429 1426 1424 1422 1420 1418 1416
1442 1442 1442 1441 1441 1441 1441 1441 1441 1440 1440 1440 1440 1441 1441 1442 1442 1442 1443 1443 1444 1443 1443 1442 1441 1440 1439 1439 1438 1437 1435 1433 1431 1431 1429 1426 1425 1422 1420 1418 1416 1414 1412
1438 1438 1437 1437 1437 1436 1437 1437 1437 1436 1436 1436 1436 1437 1437 1437 1438 1438 1439 1439 1439 1439 1439 1439 1437 1437 1436 1435 1435 1433 1432 1430 1428 1427 1425 1421 1421 1419 1417 1415 1413 1411 1409
1434 1433 1433 1433 1432 1432 1432 1432 1433 1432 1432 1432 1432 1433 1433 1434 1434 1435 1435 1435 1435 1435 1435 1434 1434 1433 1433 1432 1431 1430 1429 1427 1425 1423 1422 1419 1416 1415 1413 1411 1409 1407 1406
1430 1429 1429 1428 1428 1428 1428 1429 1429 1428 1428 1428 1429 1429 1430 1430 1431 1431 1431 1431 1431 1431 1431 1430 1430 1429 1429 1428 1428 1427 1425 1423 1421 1419 1418 1416 1413 1411 1409 1407 1406 1404 1402
1426 1425 1425 1425 1424 1424 1424 1425 1425 1425 1425 1425 1425 1426 1426 1427 1427 1428 1428 1427 1427 1427 1427 1426 1426 1425 1425 1424 1424 1423 1422 1420 1418 1416 1414 1413 1410 1409 1405 1403 1402 1401 1399